KC5TXI Weather Reports


time (UTC)temp
C
wind
direction
speed
KPH
gust
KPH
rain 1hr
cm
rain 24hr
cm
rain mn
cm
humidity
%
barometer
mb
20220813152745 31 184 3.2 3.2 0.00 0.00 0.00 60 1015.4
20220813152245 31 148 0.0 0.0 0.00 0.00 0.00 60 1015.5
20220813151745 31 215 1.6 3.2 0.00 0.00 0.00 60 1015.3
20220813151245 32 210 3.2 3.2 0.00 0.00 0.00 60 1015.5
20220813150744 31 185 3.2 4.8 0.00 0.00 0.00 61 1015.5
20220813150243 31 17 1.6 3.2 0.00 0.00 0.00 62 1015.4
20220813145742 31 123 1.6 1.6 0.00 0.00 0.00 61 1015.5
20220813145240 31 223 0.0 1.6 0.00 0.00 0.00 63 1015.6
20220813144740 31 353 1.6 3.2 0.00 0.00 0.00 63 1015.6
20220813144239 31 159 3.2 3.2 0.00 0.00 0.00 64 1015.7
20220813143738 30 121 4.8 8.0 0.00 0.00 0.00 66 1015.5
20220813143237 30 94 1.6 1.6 0.00 0.00 0.00 68 1015.3
20220813142736 30 164 3.2 4.8 0.00 0.00 0.00 67 1015.4
20220813142235 30 118 4.8 8.0 0.00 0.00 0.00 67 1015.7
20220813141733 30 114 4.8 8.0 0.00 0.00 0.00 66 1015.3
20220813141233 30 146 1.6 3.2 0.00 0.00 0.00 68 1015.5
20220813140733 29 136 4.8 8.0 0.00 0.00 0.00 69 1015.5
20220813140233 29 122 1.6 1.6 0.00 0.00 0.00 68 1015.5
20220813135732 29 150 3.2 3.2 0.00 0.00 0.00 70 1015.6
20220813135231 28 68 3.2 3.2 0.00 0.00 0.00 71 1015.5
20220813134730 28 102 4.8 8.0 0.00 0.00 0.00 70 1015.4
20220813134229 28 187 1.6 1.6 0.00 0.00 0.00 71 1015.3
20220813133729 28 183 0.0 0.0 0.00 0.00 0.00 72 1015.5
20220813133227 28 184 3.2 3.2 0.00 0.00 0.00 73 1015.4
20220813132726 27 146 1.6 3.2 0.00 0.00 0.00 74 1015.2
20220813132226 27 81 3.2 4.8 0.00 0.00 0.00 76 1015.1
20220813131724 27 159 1.6 1.6 0.00 0.00 0.00 76 1015.0
20220813131223 27 103 3.2 3.2 0.00 0.00 0.00 76 1015.1
20220813130722 27 118 3.2 4.8 0.00 0.00 0.00 77 1015.1
20220813130222 27 108 1.6 4.8 0.00 0.00 0.00 77 1015.3
20220813125720 27 195 1.6 3.2 0.00 0.00 0.00 77 1015.2
20220813125220 27 123 4.8 4.8 0.00 0.00 0.00 77 1015.1
20220813124720 27 196 1.6 3.2 0.00 0.00 0.00 78 1015.2
20220813124218 26 187 0.0 1.6 0.00 0.00 0.00 78 1014.9
20220813123717 26 197 1.6 3.2 0.00 0.00 0.00 78 1015.1
20220813123217 26 208 0.0 0.0 0.00 0.00 0.00 78 1015.1
20220813122717 26 190 0.0 1.6 0.00 0.00 0.00 79 1014.9
20220813122216 26 141 0.0 1.6 0.00 0.00 0.00 78 1014.6
20220813121715 26 106 4.8 8.0 0.00 0.00 0.00 78 1014.8
20220813121215 26 179 1.6 1.6 0.00 0.00 0.00 79 1014.8
20220813120714 26 166 3.2 3.2 0.00 0.00 0.00 79 1014.8
20220813120214 26 161 1.6 1.6 0.00 0.00 0.00 79 1014.6
20220813115713 26 182 0.0 0.0 0.00 0.00 0.00 79 1014.7
20220813115213 26 184 0.0 0.0 0.00 0.00 0.00 79 1014.3
20220813114711 26 185 0.0 0.0 0.00 0.00 0.00 78 1014.2
20220813114211 26 176 0.0 1.6 0.00 0.00 0.00 78 1014.4
20220813113710 26 192 0.0 0.0 0.00 0.00 0.00 78 1014.2
20220813113209 26 188 0.0 0.0 0.00 0.00 0.00 77 1014.4
20220813112710 26 129 1.6 3.2 0.00 0.00 0.00 76 1014.4
20220813112209 26 187 0.0 0.0 0.00 0.00 0.00 76 1014.5
20220813111708 26 191 0.0 0.0 0.00 0.00 0.00 76 1014.4
20220813111208 26 176 1.6 1.6 0.00 0.00 0.00 75 1014.4
20220813110707 27 197 0.0 0.0 0.00 0.00 0.00 75 1014.4
20220813110208 27 170 0.0 0.0 0.00 0.00 0.00 75 1014.1
20220813105708 27 196 0.0 0.0 0.00 0.00 0.00 74 1014.1
20220813105207 27 176 1.6 1.6 0.00 0.00 0.00 74 1014.0
20220813104707 27 196 0.0 0.0 0.00 0.00 0.00 74 1014.2
20220813104205 27 180 1.6 1.6 0.00 0.00 0.00 74 1014.1
20220813103704 27 157 1.6 3.2 0.00 0.00 0.00 74 1014.4
20220813103203 27 176 0.0 0.0 0.00 0.00 0.00 73 1014.2
20220813102703 27 201 0.0 0.0 0.00 0.00 0.00 73 1014.3
20220813102203 27 164 1.6 1.6 0.00 0.00 0.00 73 1014.2
20220813101701 27 195 0.0 0.0 0.00 0.00 0.00 73 1014.1
20220813101201 27 201 0.0 0.0 0.00 0.00 0.00 72 1014.1
20220813100700 27 187 0.0 0.0 0.00 0.00 0.00 72 1014.2
20220813100159 27 189 0.0 0.0 0.00 0.00 0.00 71 1014.2
20220813095658 27 167 0.0 0.0 0.00 0.00 0.00 71 1014.3
20220813095157 27 222 0.0 0.0 0.00 0.00 0.00 72 1014.3
20220813094657 27 213 1.6 1.6 0.00 0.00 0.00 72 1014.0
20220813094155 27 151 0.0 0.0 0.00 0.00 0.00 72 1014.2
20220813093655 27 184 0.0 0.0 0.00 0.00 0.00 72 1014.1
20220813093155 27 183 0.0 0.0 0.00 0.00 0.00 71 1014.1
20220813092653 27 208 0.0 0.0 0.00 0.00 0.00 71 1014.0
20220813092153 27 197 0.0 0.0 0.00 0.00 0.00 70 1014.1
20220813091652 27 200 0.0 0.0 0.00 0.00 0.00 71 1014.1
20220813091150 27 193 0.0 0.0 0.00 0.00 0.00 70 1014.0
20220813090648 27 191 0.0 0.0 0.00 0.00 0.00 69 1013.9
20220813090147 27 185 0.0 0.0 0.00 0.00 0.00 69 1013.8
20220813085647 27 191 0.0 0.0 0.00 0.00 0.00 69 1014.2
20220813085146 27 176 0.0 0.0 0.00 0.00 0.00 69 1014.0
20220813084646 27 184 0.0 0.0 0.00 0.00 0.00 69 1014.0
20220813084145 28 192 0.0 0.0 0.00 0.00 0.00 68 1013.7
20220813083645 28 189 0.0 0.0 0.00 0.00 0.00 68 1013.8
20220813083143 28 189 0.0 0.0 0.00 0.00 0.00 68 1013.7
20220813082643 28 204 0.0 0.0 0.00 0.00 0.00 67 1013.9
20220813082143 28 201 0.0 0.0 0.00 0.00 0.00 67 1013.8
20220813081642 28 195 0.0 0.0 0.00 0.00 0.00 67 1013.7
20220813081142 28 193 0.0 0.0 0.00 0.00 0.00 66 1013.8
20220813080642 28 126 1.6 1.6 0.00 0.00 0.00 66 1013.8
20220813080141 28 180 1.6 3.2 0.00 0.00 0.00 65 1013.8
20220813075639 28 190 1.6 1.6 0.00 0.00 0.00 65 1013.8
20220813075138 28 194 0.0 0.0 0.00 0.00 0.00 65 1013.8
20220813074637 28 197 3.2 3.2 0.00 0.00 0.00 65 1013.9
20220813074136 28 195 0.0 1.6 0.00 0.00 0.00 64 1013.9
20220813073634 29 176 1.6 1.6 0.00 0.00 0.00 64 1013.9
20220813073133 29 157 1.6 3.2 0.00 0.00 0.00 63 1013.7
20220813072632 29 201 1.6 4.8 0.00 0.00 0.00 63 1013.8
20220813072131 29 201 1.6 1.6 0.00 0.00 0.00 63 1013.7
20220813071630 29 183 0.0 1.6 0.00 0.00 0.00 63 1013.6
20220813071129 29 211 1.6 1.6 0.00 0.00 0.00 62 1013.7
20220813070628 29 135 1.6 3.2 0.00 0.00 0.00 62 1013.6
20220813070126 29 191 1.6 1.6 0.00 0.00 0.00 62 1013.7
20220813065626 29 201 1.6 1.6 0.00 0.00 0.00 62 1013.4
20220813065126 30 194 3.2 4.8 0.00 0.00 0.00 61 1013.9
20220813064625 30 71 3.2 3.2 0.00 0.00 0.00 61 1013.7
20220813064124 30 210 1.6 3.2 0.00 0.00 0.00 60 1013.7
20220813063623 30 148 1.6 3.2 0.00 0.00 0.00 60 1013.7
20220813063122 30 87 4.8 4.8 0.00 0.00 0.00 59 1013.8
20220813062621 30 139 4.8 4.8 0.00 0.00 0.00 59 1013.7
20220813062119 30 84 3.2 4.8 0.00 0.00 0.00 59 1013.9
20220813061619 30 144 3.2 4.8 0.00 0.00 0.00 59 1014.0
20220813061118 30 127 3.2 3.2 0.00 0.00 0.00 58 1013.8
20220813060616 30 138 1.6 1.6 0.00 0.00 0.00 58 1013.8
20220813060116 30 117 4.8 8.0 0.00 0.00 0.00 58 1013.8
20220813055614 30 120 3.2 3.2 0.00 0.00 0.00 57 1013.7
20220813055112 30 142 4.8 4.8 0.00 0.00 0.00 57 1013.7
20220813054611 30 148 3.2 4.8 0.00 0.00 0.00 57 1013.8
20220813054111 30 151 3.2 3.2 0.00 0.00 0.00 56 1013.7
20220813053611 30 76 4.8 4.8 0.00 0.00 0.00 56 1013.7
20220813053111 30 204 3.2 3.2 0.00 0.00 0.00 56 1013.5
20220813052610 30 93 3.2 3.2 0.00 0.00 0.00 55 1013.7
20220813052109 31 199 0.0 0.0 0.00 0.00 0.00 55 1013.3
20220813051608 31 199 3.2 3.2 0.00 0.00 0.00 54 1013.4
20220813051108 31 79 1.6 1.6 0.00 0.00 0.00 54 1013.6
20220813050608 31 156 1.6 3.2 0.00 0.00 0.00 53 1013.5
20220813050108 31 121 1.6 3.2 0.00 0.00 0.00 53 1013.4
20220813045607 31 197 1.6 1.6 0.00 0.00 0.00 53 1013.4
20220813045106 31 186 0.0 0.0 0.00 0.00 0.00 53 1013.5
20220813044605 31 165 1.6 1.6 0.00 0.00 0.00 53 1013.4
20220813044104 31 185 1.6 1.6 0.00 0.00 0.00 53 1013.6
20220813043603 31 172 1.6 1.6 0.00 0.00 0.00 52 1013.6
20220813043103 31 191 0.0 0.0 0.00 0.00 0.00 52 1013.4
20220813042602 31 195 3.2 3.2 0.00 0.00 0.00 52 1013.6
20220813042102 31 200 1.6 3.2 0.00 0.00 0.00 52 1013.4
20220813041601 31 121 1.6 4.8 0.00 0.00 0.00 52 1013.3
20220813041100 31 195 0.0 1.6 0.00 0.00 0.00 52 1013.3
20220813040600 31 193 1.6 1.6 0.00 0.00 0.00 51 1013.4
20220813040059 31 135 6.4 8.0 0.00 0.00 0.00 51 1013.0
20220813035558 31 219 0.0 0.0 0.00 0.00 0.00 51 1013.1
20220813035056 31 174 3.2 4.8 0.00 0.00 0.00 51 1013.1
20220813034555 31 201 0.0 0.0 0.00 0.00 0.00 52 1013.2
20220813034053 32 216 0.0 0.0 0.00 0.00 0.00 51 1013.0
20220813033552 32 176 0.0 1.6 0.00 0.00 0.00 51 1013.0
20220813033051 32 145 3.2 3.2 0.00 0.00 0.00 51 1012.8
20220813032551 32 156 1.6 1.6 0.00 0.00 0.00 50 1012.7
20220813032049 32 180 1.6 1.6 0.00 0.00 0.00 50 1013.0
20220813031550 32 206 0.0 0.0 0.00 0.00 0.00 50 1013.0
20220813031049 32 190 0.0 1.6 0.00 0.00 0.00 50 1013.0
20220813030548 32 175 0.0 0.0 0.00 0.00 0.00 50 1012.6
20220813030046 32 105 1.6 3.2 0.00 0.00 0.00 49 1012.4
20220813025545 32 166 0.0 0.0 0.00 0.00 0.00 49 1012.5
20220813025044 32 138 1.6 3.2 0.00 0.00 0.00 49 1012.4
20220813024545 32 196 0.0 0.0 0.00 0.00 0.00 49 1012.4
20220813024044 32 160 1.6 3.2 0.00 0.00 0.00 48 1012.4
20220813023543 32 183 0.0 1.6 0.00 0.00 0.00 49 1012.2
20220813023043 32 199 0.0 1.6 0.00 0.00 0.00 49 1012.0
20220813022542 32 198 0.0 0.0 0.00 0.00 0.00 49 1012.0
20220813022042 32 194 0.0 0.0 0.00 0.00 0.00 48 1012.2
20220813021541 32 124 1.6 1.6 0.00 0.00 0.00 48 1012.2
20220813021041 32 178 0.0 1.6 0.00 0.00 0.00 48 1012.1
20220813020539 32 191 3.2 3.2 0.00 0.00 0.00 48 1011.9
20220813020039 32 218 0.0 1.6 0.00 0.00 0.00 48 1012.0
20220813015537 32 167 1.6 3.2 0.00 0.00 0.00 47 1012.0
20220813015037 32 170 1.6 1.6 0.00 0.00 0.00 47 1011.7
20220813014535 32 196 0.0 0.0 0.00 0.00 0.00 47 1011.7
20220813014034 32 170 1.6 1.6 0.00 0.00 0.00 48 1011.9
20220813013533 32 192 0.0 0.0 0.00 0.00 0.00 47 1012.0
20220813013032 32 197 0.0 0.0 0.00 0.00 0.00 47 1011.7
20220813012531 33 217 0.0 0.0 0.00 0.00 0.00 46 1011.6
20220813012030 33 193 0.0 0.0 0.00 0.00 0.00 46 1012.0
20220813011529 33 189 1.6 3.2 0.00 0.00 0.00 45 1011.7
20220813011028 33 131 3.2 3.2 0.00 0.00 0.00 45 1011.6
20220813010527 33 197 0.0 0.0 0.00 0.00 0.00 45 1011.5
20220813010025 33 109 4.8 4.8 0.00 0.00 0.00 45 1011.6
20220813005525 33 35 4.8 8.0 0.00 0.00 0.00 45 1011.5
20220813005025 33 184 3.2 4.8 0.00 0.00 0.00 45 1011.3
20220813004524 33 182 3.2 3.2 0.00 0.00 0.00 44 1011.4
20220813004024 33 203 0.0 0.0 0.00 0.00 0.00 44 1011.4
20220813003524 34 101 0.0 1.6 0.00 0.00 0.00 44 1011.3
20220813003023 34 153 0.0 0.0 0.00 0.00 0.00 44 1011.1
20220813002522 34 39 3.2 3.2 0.00 0.00 0.00 44 1011.1
20220813002020 34 69 1.6 3.2 0.00 0.00 0.00 44 1011.5
20220813001520 34 201 1.6 3.2 0.00 0.00 0.00 44 1011.1
20220813001018 34 202 1.6 3.2 0.00 0.00 0.00 44 1011.2
20220813000517 34 197 4.8 4.8 0.00 0.00 0.00 44 1011.2
20220813000017 34 191 1.6 1.6 0.00 0.00 0.00 44 1011.2
20220812235516 34 201 0.0 0.0 0.00 0.00 0.00 44 1011.1
20220812235014 35 89 1.6 1.6 0.00 0.00 0.00 44 1011.0
20220812234513 35 121 4.8 4.8 0.00 0.00 0.00 44 1011.1
20220812234013 35 151 1.6 3.2 0.00 0.00 0.00 44 1011.1
20220812233512 34 206 0.0 0.0 0.00 0.00 0.00 44 1011.2
20220812233012 34 214 0.0 0.0 0.00 0.00 0.00 44 1011.2
20220812232511 34 196 0.0 1.6 0.00 0.00 0.00 45 1011.3
20220812232010 34 148 0.0 1.6 0.00 0.00 0.00 45 1011.3
20220812231510 35 95 4.8 4.8 0.00 0.00 0.00 44 1011.2
20220812231009 35 197 0.0 1.6 0.00 0.00 0.00 43 1011.4
20220812230509 35 257 1.6 1.6 0.00 0.00 0.00 43 1011.4
20220812230007 36 218 3.2 4.8 0.00 0.00 0.00 42 1011.3
20220812225507 36 171 1.6 3.2 0.00 0.00 0.00 42 1011.5
20220812225006 35 163 4.8 4.8 0.00 0.00 0.00 42 1011.5
20220812224505 35 177 3.2 3.2 0.00 0.00 0.00 43 1011.5
20220812224004 35 277 1.6 3.2 0.00 0.00 0.00 43 1011.5
20220812223504 35 149 1.6 1.6 0.00 0.00 0.00 43 1011.4
20220812223004 36 75 1.6 1.6 0.00 0.00 0.00 42 1011.7
20220812222503 36 77 8.0 11.3 0.00 0.00 0.00 41 1011.6
20220812222003 36 6 9.7 12.9 0.00 0.00 0.00 40 1011.6
20220812221501 36 198 3.2 3.2 0.00 0.00 0.00 41 1011.7
20220812221001 36 111 4.8 8.0 0.00 0.00 0.00 40 1011.7
20220812220500 36 160 4.8 9.7 0.00 0.00 0.00 41 1011.9
20220812220000 36 230 0.0 1.6 0.00 0.00 0.00 41 1011.7
20220812215459 36 219 0.0 0.0 0.00 0.00 0.00 41 1012.0
20220812214958 35 179 3.2 3.2 0.00 0.00 0.00 44 1012.0
20220812214457 36 145 4.8 8.0 0.00 0.00 0.00 41 1011.9
20220812213956 37 63 4.8 4.8 0.00 0.00 0.00 41 1012.0
20220812213455 36 131 6.4 11.3 0.00 0.00 0.00 41 1012.0
20220812212955 35 195 3.2 3.2 0.00 0.00 0.00 43 1012.3
20220812212454 35 121 4.8 8.0 0.00 0.00 0.00 42 1012.1
20220812211953 34 151 1.6 1.6 0.00 0.00 0.00 44 1012.1
20220812211451 35 179 1.6 3.2 0.00 0.00 0.00 45 1012.7
20220812210951 35 213 1.6 1.6 0.00 0.00 0.00 44 1012.5
20220812210450 35 1 3.2 3.2 0.00 0.00 0.00 44 1012.4
20220812205949 35 180 3.2 4.8 0.00 0.00 0.00 44 1012.6
20220812205447 36 125 3.2 3.2 0.00 0.00 0.00 43 1012.9
20220812204946 35 208 1.6 1.6 0.00 0.00 0.00 43 1012.7
20220812204446 35 209 4.8 4.8 0.00 0.00 0.00 42 1012.9
20220812203946 35 126 8.0 9.7 0.00 0.00 0.00 42 1013.2
20220812203447 35 107 1.6 3.2 0.00 0.00 0.00 44 1013.0
20220812202945 34 89 8.0 9.7 0.00 0.00 0.00 44 1013.2
20220812202444 34 172 4.8 8.0 0.00 0.00 0.00 44 1013.4
20220812201944 34 186 1.6 1.6 0.00 0.00 0.00 46 1013.3
20220812201443 33 235 3.2 3.2 0.00 0.00 0.00 47 1013.5
20220812200943 33 127 4.8 4.8 0.00 0.00 0.00 48 1013.3
20220812200442 34 80 4.8 8.0 0.00 0.00 0.00 47 1013.5
20220812195941 34 218 3.2 3.2 0.00 0.00 0.00 48 1013.7
20220812195441 34 114 6.4 9.7 0.00 0.00 0.00 47 1013.4
20220812194941 34 115 6.4 8.0 0.00 0.00 0.00 46 1013.7
20220812194439 34 188 1.6 3.2 0.00 0.00 0.00 46 1013.4
20220812193938 34 183 1.6 1.6 0.00 0.00 0.00 46 1013.5
20220812193438 34 279 4.8 8.0 0.00 0.00 0.00 46 1013.4
20220812192937 35 155 0.0 0.0 0.00 0.00 0.00 45 1013.5
20220812192437 35 102 4.8 9.7 0.00 0.00 0.00 44 1013.7
20220812191936 35 348 3.2 4.8 0.00 0.00 0.00 43 1013.7
20220812191435 35 206 4.8 8.0 0.00 0.00 0.00 44 1013.9
20220812190934 36 204 3.2 3.2 0.00 0.00 0.00 42 1013.5
20220812190433 35 36 1.6 1.6 0.00 0.00 0.00 43 1013.8
20220812185931 35 32 1.6 3.2 0.00 0.00 0.00 42 1013.9
20220812185430 35 99 4.8 8.0 0.00 0.00 0.00 41 1014.0
20220812184928 35 222 1.6 3.2 0.00 0.00 0.00 42 1013.9
20220812184428 35 61 4.8 8.0 0.00 0.00 0.00 43 1013.9
20220812183927 35 227 1.6 1.6 0.00 0.00 0.00 43 1014.1
20220812183426 35 258 1.6 1.6 0.00 0.00 0.00 45 1013.8
20220812182925 35 189 3.2 4.8 0.00 0.00 0.00 43 1014.2
20220812182424 33 217 1.6 3.2 0.00 0.00 0.00 46 1014.1
20220812181923 34 183 1.6 3.2 0.00 0.00 0.00 45 1014.0
20220812181422 34 114 4.8 4.8 0.00 0.00 0.00 46 1014.0
20220812180920 34 162 0.0 1.6 0.00 0.00 0.00 47 1014.4
20220812180420 34 132 1.6 1.6 0.00 0.00 0.00 45 1014.3
20220812175918 34 219 3.2 3.2 0.00 0.00 0.00 44 1014.6
20220812175418 34 85 6.4 8.0 0.00 0.00 0.00 46 1014.6
20220812174916 34 248 1.6 1.6 0.00 0.00 0.00 46 1014.6
20220812174416 33 79 4.8 4.8 0.00 0.00 0.00 47 1014.6
20220812173915 33 204 3.2 3.2 0.00 0.00 0.00 49 1014.5
20220812173415 33 85 3.2 3.2 0.00 0.00 0.00 47 1014.6
20220812172913 33 53 8.0 14.5 0.00 0.00 0.00 47 1014.7
20220812172413 34 128 8.0 11.3 0.00 0.00 0.00 49 1014.7
20220812171912 33 186 4.8 9.7 0.00 0.00 0.00 48 1014.8
20220812171411 33 2 3.2 4.8 0.00 0.00 0.00 49 1015.0
20220812170911 33 161 0.0 1.6 0.00 0.00 0.00 51 1015.0
20220812170410 32 62 3.2 3.2 0.00 0.00 0.00 51 1014.8
20220812165908 33 157 3.2 3.2 0.00 0.00 0.00 51 1014.9
20220812165407 33 198 1.6 3.2 0.00 0.00 0.00 53 1015.0
20220812164906 33 171 1.6 3.2 0.00 0.00 0.00 53 1014.9
20220812164405 32 209 0.0 1.6 0.00 0.00 0.00 54 1015.0
20220812163904 33 118 3.2 3.2 0.00 0.00 0.00 53 1015.4
20220812163404 33 140 0.0 1.6 0.00 0.00 0.00 53 1015.1
20220812162904 33 321 0.0 1.6 0.00 0.00 0.00 53 1015.5
20220812162403 33 332 1.6 3.2 0.00 0.00 0.00 54 1015.5
20220812161903 32 195 0.0 1.6 0.00 0.00 0.00 56 1015.4
20220812161402 32 184 1.6 3.2 0.00 0.00 0.00 55 1015.4
20220812160900 32 38 1.6 3.2 0.00 0.00 0.00 54 1015.3
20220812160359 32 183 3.2 3.2 0.00 0.00 0.00 54 1015.6
20220812155858 33 196 3.2 4.8 0.00 0.00 0.00 55 1015.5
20220812155358 32 161 1.6 3.2 0.00 0.00 0.00 57 1015.5
20220812154857 32 104 6.4 9.7 0.00 0.00 0.00 57 1015.5
20220812154356 32 80 1.6 3.2 0.00 0.00 0.00 57 1015.5
20220812153856 32 84 3.2 3.2 0.00 0.00 0.00 60 1015.3
20220812153353 31 99 0.0 1.6 0.00 0.00 0.00 59 1015.4
20220812152853 31 355 3.2 3.2 0.00 0.00 0.00 62 1015.5